7 * 24
多渠道服务支持
JILIN-01 GAOFEN 3D 27(吉林一号高分3D 27)是中国自主研发的商业遥感卫星,由长光卫星技术股份有限公司研制运营,于2022年5月5日发射入轨。卫星运行于太阳同步轨道,轨道倾角约97.57°,轨道高度约460公里,目前状态为在轨正常工作。 作为“吉林一号”商业遥感卫星星座的组成部分,它具备高分辨率对地观测能力,可为国土资源监测、智慧城市建设、农业林业资源普查、防灾减灾等多个领域提供遥感数据支撑,助力我国商业航天遥感应用产业化发展,目前已在轨运行超千天,持续提供服务。
中国
(CN)
| 数据来源 | 国际轨道数据 |
| 星历时间: | 2026-03-04T07:12:30+0800 5小时前 查看轨道信息 |
| 半长轴: | 6772.256km |
| 偏心率: | 0.0004852 |
| 轨道倾角: | 97.564° |
| 近地点辐角 | 79.218° |
| 升交点赤经 | 169.032° |
| 平近点角 | 280.962° |
| 近地点: | 390.833km |
| 远地点: | 397.405km |
| 周期: | 92.440分钟 |
| 每日圈数: | 15.577681 |